This is the latest recevied weather packets stored in our database for station/object OK2ZAW-23. If no packets are shown the sender has not sent any weather packets the latest 1 day(s).
| Time | Temp. | Humidity | Pressure | Rain* | Wind** | Luminosity | Snow |
|---|---|---|---|---|---|---|---|
| 1836274558 | 12.22° C | 98% | 1022.3 hPa | - | 0 m/s | 335 W/m² | - |
| 1836274435 | 12.22° C | 97% | 1022.2 hPa | - | 0 m/s | 335 W/m² | - |
| 1836274245 | 12.22° C | 98% | 1022.4 hPa | - | 0 m/s | 336 W/m² | - |
| 1836274122 | 12.22° C | 98% | 1022.2 hPa | - | 0 m/s | 335 W/m² | - |
| 1836273932 | 12.22° C | 98% | 1022.4 hPa | - | 0 m/s | 335 W/m² | - |
| 1778031726 | 12.78° C | 10% | - | - | 0 m/s | - | - |
| 1778031412 | 12.78° C | 10% | - | - | 0 m/s | - | - |
| 1778029845 | 13.33° C | 10% | - | - | 0 m/s | - | - |
| 1778029218 | 13.33° C | 10% | - | - | 0 m/s | - | - |
| 1778028905 | 13.33° C | 10% | - | - | 0 m/s | - | - |
| 1778028591 | 13.33° C | 98% | 1003.5 hPa | - | 0 m/s | 335 W/m² | - |
| 1778028277 | 13.33° C | 96% | 1003.5 hPa | - | 0 m/s | 336 W/m² | - |
| 1778027964 | 13.33° C | 93% | 1003.5 hPa | - | 0 m/s | 335 W/m² | - |
| 1778027651 | 13.33° C | 92% | 1003.5 hPa | - | 0 m/s | 335 W/m² | - |
| 1778027023 | 13.89° C | 81% | 1003.5 hPa | - | 0 m/s | 335 W/m² | - |
| 1778026709 | 13.89° C | 79% | 1003.4 hPa | - | 0 m/s | 335 W/m² | - |
| 1778026396 | 13.89° C | 77% | 1003.4 hPa | - | 0 m/s | 335 W/m² | - |
| 1778025769 | 13.89° C | 72% | 1003.2 hPa | - | 0 m/s | 335 W/m² | - |
| 1778025455 | 13.89° C | 68% | 1003.2 hPa | - | 0 m/s | 335 W/m² | - |
| 1778024201 | 13.89° C | 64% | 1003.5 hPa | - | 0 m/s | 335 W/m² | - |
| 1778023887 | 13.89° C | 63% | 1003.5 hPa | - | 0 m/s | 335 W/m² | - |
| 1778023575 | 13.89° C | 61% | 1003.5 hPa | - | 0 m/s | 335 W/m² | - |
| 1778022946 | 13.89° C | 59% | 1003.3 hPa | - | 0 m/s | 335 W/m² | - |
| 1778022634 | 14.44° C | 59% | 1003.2 hPa | - | 0 m/s | 336 W/m² | - |
| 1778022319 | 14.44° C | 58% | 1003.2 hPa | - | 0 m/s | 335 W/m² | - |
* Rain since midnight (hover to see other rain measurements)
** Current wind speed in m/s (hover to see current wind gust speed)